K5KVN-2 Weather Reports


Display with metric or nautical units.
time (UTC)temp
F
wind
direction
speed
MPH
gust
MPH
rain 1hr
in
rain 24hr
in
rain mn
in
humidity
%
barometer
mb
20260906120018 73 142 0.0 0.0 0.00 0.00 0.00 85 1015.5
20260906115020 73 19 0.0 0.0 0.00 0.00 0.00 84 1015.4
20260906114014 74 128 0.0 0.0 0.00 0.00 0.00 82 1015.3
20260906113455 74 86 0.0 0.0 0.00 0.00 0.00 82 1015.2
20260906112014 74 86 0.0 0.0 0.00 0.00 0.00 81 1015.1
20260906111015 74 86 0.0 0.0 0.00 0.00 0.00 82 1015.0
20260906110451 74 105 0.0 0.0 0.00 0.00 0.00 82 1015.1
20260906105013 74 80 0.0 0.0 0.00 0.00 0.00 82 1015.0
20260906104011 74 107 0.0 0.0 0.00 0.00 0.00 82 1015.0
20260906103011 74 57 0.0 0.0 0.00 0.00 0.00 82 1015.0
20260906102013 74 201 0.0 0.0 0.00 0.00 0.00 82 1014.9
20260906101006 75 201 0.0 0.0 0.00 0.00 0.00 80 1015.0
20260906100446 75 201 0.0 0.0 0.00 0.00 0.00 80 1014.9
20260906095004 76 201 0.0 0.0 0.00 0.00 0.00 79 1014.7
20260906094004 76 201 0.0 0.0 0.00 0.00 0.00 78 1014.8
20260906093002 77 288 0.0 0.0 0.00 0.00 0.00 77 1014.7
20260906092003 77 288 0.0 0.0 0.00 0.00 0.00 76 1014.6
20260906091002 77 288 0.0 0.0 0.00 0.00 0.00 77 1014.5
20260906090001 76 288 0.0 0.0 0.00 0.00 0.00 77 1014.4
20260906084001 76 288 0.0 0.0 0.00 0.00 0.00 76 1014.3
20260906083001 76 288 0.0 0.0 0.00 0.00 0.00 77 1014.1
20260906082002 76 288 0.0 0.0 0.00 0.00 0.00 76 1014.2
20260906081001 76 288 0.0 0.0 0.00 0.00 0.00 75 1014.2
20260906080002 76 288 0.0 0.0 0.00 0.00 0.00 75 1014.3
20260906075001 77 288 0.0 0.0 0.00 0.00 0.00 75 1014.2
20260906074002 77 288 0.0 0.0 0.00 0.00 0.00 74 1014.3
20260906073006 77 288 0.0 0.0 0.00 0.00 0.00 74 1014.4
20260906072002 77 288 0.0 0.0 0.00 0.00 0.00 73 1014.4
20260906071003 77 288 0.0 0.0 0.00 0.00 0.00 73 1014.4
20260906070002 77 288 0.0 0.0 0.00 0.00 0.00 73 1014.5
20260906065002 77 288 0.0 0.0 0.00 0.00 0.00 73 1014.3
20260906064001 77 288 0.0 0.0 0.00 0.00 0.00 73 1014.5
20260906063000 77 288 0.0 0.0 0.00 0.00 0.00 74 1014.5
20260906062003 78 288 0.0 0.0 0.00 0.00 0.00 74 1014.5
20260906061000 78 288 0.0 0.0 0.00 0.00 0.00 70 1014.5
20260906060001 79 196 0.0 0.0 0.00 0.00 0.00 70 1014.5
20260906054957 80 324 0.0 0.0 0.00 0.00 0.00 67 1014.3
20260906053958 80 265 0.0 0.0 0.00 0.00 0.00 66 1014.4
20260906052954 82 170 0.0 0.0 0.00 0.00 0.00 63 1014.3
20260906051952 82 170 0.0 0.0 0.00 0.00 0.00 63 1014.3
20260906050953 82 170 0.0 0.0 0.00 0.00 0.00 63 1014.2
20260906045951 83 170 0.0 0.0 0.00 0.00 0.00 62 1014.3
20260906045432 83 170 0.0 0.0 0.00 0.00 0.00 61 1014.2
20260906043950 84 170 0.0 0.0 0.00 0.00 0.00 60 1014.1
20260906042949 84 181 0.0 0.0 0.00 0.00 0.00 60 1014.2
20260906041949 85 168 0.0 1.0 0.00 0.00 0.00 59 1014.5
20260906040949 84 161 1.0 3.0 0.00 0.00 0.00 60 1014.2
20260906040425 84 122 0.0 3.0 0.00 0.00 0.00 61 1014.2
20260906034948 83 92 0.0 1.0 0.00 0.00 0.00 62 1014.4
20260906033944 84 102 0.0 1.0 0.00 0.00 0.00 62 1014.2
20260906033428 84 42 0.0 0.0 0.00 0.00 0.00 61 1014.3
20260906031940 84 33 0.0 0.0 0.00 0.00 0.00 61 1014.3
20260906031419 84 33 0.0 0.0 0.00 0.00 0.00 61 1014.4
20260906025938 85 33 0.0 1.0 0.00 0.00 0.00 58 1014.3
20260906024938 85 33 0.0 1.0 0.00 0.00 0.00 57 1014.2
20260906023938 86 140 0.0 1.0 0.00 0.00 0.00 57 1014.1
20260906023418 87 74 0.0 2.0 0.00 0.00 0.00 55 1014.1
20260906021936 87 59 0.0 2.0 0.00 0.00 0.00 55 1014.0
20260906020936 88 178 0.0 0.0 0.00 0.00 0.00 54 1013.6
20260906015935 88 178 0.0 0.0 0.00 0.00 0.00 52 1013.5
20260906014934 89 178 0.0 2.0 0.00 0.00 0.00 51 1013.4
20260906013934 89 127 0.0 2.0 0.00 0.00 0.00 51 1013.2
20260906012933 89 172 0.0 1.0 0.00 0.00 0.00 51 1013.1
20260906010933 92 172 1.0 2.0 0.00 0.00 0.00 47 1012.9
20260906010418 92 172 2.0 3.0 0.00 0.00 0.00 46 1012.6
20260906004931 93 163 2.0 4.0 0.00 0.00 0.00 45 1012.7
20260906004411 94 134 2.0 4.0 0.00 0.00 0.00 43 1012.8
20260906002931 94 126 4.0 7.0 0.00 0.00 0.00 43 1012.7
20260906001930 95 149 5.0 7.0 0.00 0.00 0.00 41 1012.8
20260906000932 96 149 1.0 7.0 0.00 0.00 0.00 41 1012.8
20260905235930 96 120 1.0 2.0 0.00 0.00 0.00 39 1012.6
20260905234931 97 136 2.0 4.0 0.00 0.00 0.00 38 1012.6
20260905234416 97 120 1.0 4.0 0.00 0.00 0.00 38 1012.6
20260905232927 97 131 2.0 7.0 0.00 0.00 0.00 37 1012.7
20260905231928 98 122 3.0 8.0 0.00 0.00 0.00 36 1012.7
20260905230926 98 92 2.0 8.0 0.00 0.00 0.00 36 1012.8
20260905225926 99 138 2.0 6.0 0.00 0.00 0.00 36 1012.7
20260905224926 98 92 2.0 5.0 0.00 0.00 0.00 36 1012.5
20260905223928 99 72 1.0 3.0 0.00 0.00 0.00 36 1012.5
20260905222926 98 74 1.0 4.0 0.00 0.00 0.00 35 1012.6
20260905221927 98 355 2.0 4.0 0.00 0.00 0.00 36 1012.5
20260905220927 98 65 1.0 6.0 0.00 0.00 0.00 35 1012.7
20260905215932 99 54 2.0 9.0 0.00 0.00 0.00 35 1012.7
20260905214927 99 116 2.0 6.0 0.00 0.00 0.00 36 1012.8
20260905213926 98 171 1.0 5.0 0.00 0.00 0.00 36 1012.8
20260905213404 97 355 0.0 2.0 0.00 0.00 0.00 37 1012.9
20260905211927 98 9 1.0 2.0 0.00 0.00 0.00 36 1013.1
20260905211417 98 119 1.0 4.0 0.00 0.00 0.00 35 1013.3
20260905205925 99 128 2.0 6.0 0.00 0.00 0.00 35 1013.4
20260905204925 100 79 2.0 7.0 0.00 0.00 0.00 34 1013.6
20260905203925 101 0 3.0 10.0 0.00 0.00 0.00 33 1013.6
20260905202924 101 171 4.0 11.0 0.00 0.00 0.00 34 1013.8
20260905201924 100 188 3.0 9.0 0.00 0.00 0.00 35 1013.9
20260905200927 100 177 5.0 9.0 0.00 0.00 0.00 34 1014.1
20260905200404 100 213 3.0 9.0 0.00 0.00 0.00 35 1014.3
20260905194921 100 82 5.0 11.0 0.00 0.00 0.00 34 1014.4
20260905193923 100 257 3.0 8.0 0.00 0.00 0.00 35 1014.4
20260905192924 100 175 2.0 5.0 0.00 0.00 0.00 35 1014.6
20260905192357 100 355 2.0 9.0 0.00 0.00 0.00 36 1014.8
20260905191406 98 101 3.0 8.0 0.00 0.00 0.00 38 1014.9
20260905185922 97 319 3.0 7.0 0.00 0.00 0.00 40 1015.1
20260905184922 98 168 4.0 10.0 0.00 0.00 0.00 39 1015.0
20260905183921 98 40 3.0 8.0 0.00 0.00 0.00 39 1015.2
20260905182923 98 187 4.0 9.0 0.00 0.00 0.00 40 1015.3
20260905181919 96 126 2.0 9.0 0.00 0.00 0.00 40 1015.5
20260905180915 99 37 3.0 10.0 0.00 0.00 0.00 38 1015.6
20260905175915 98 5 2.0 8.0 0.00 0.00 0.00 39 1015.9
20260905174916 97 49 3.0 6.0 0.00 0.00 0.00 40 1016.0
20260905173915 97 82 4.0 10.0 0.00 0.00 0.00 40 1016.2
20260905172915 98 355 2.0 6.0 0.00 0.00 0.00 40 1016.3
20260905171919 98 314 4.0 9.0 0.00 0.00 0.00 41 1016.5
20260905170913 97 261 2.0 5.0 0.00 0.00 0.00 43 1016.4
20260905170405 96 90 4.0 9.0 0.00 0.00 0.00 43 1016.5
20260905164912 96 171 3.0 6.0 0.00 0.00 0.00 45 1016.7
20260905163909 94 301 1.0 4.0 0.00 0.00 0.00 46 1016.8
20260905162909 93 214 3.0 6.0 0.00 0.00 0.00 48 1016.7
20260905161906 93 152 3.0 7.0 0.00 0.00 0.00 47 1016.8
20260905160906 94 260 4.0 8.0 0.00 0.00 0.00 46 1016.8
20260905155907 93 296 2.0 7.0 0.00 0.00 0.00 48 1016.8
20260905153901 92 43 3.0 5.0 0.00 0.00 0.00 49 1016.8
20260905152903 91 187 2.0 6.0 0.00 0.00 0.00 52 1016.8
20260905151901 90 290 3.0 7.0 0.00 0.00 0.00 54 1016.9
20260905151344 89 172 2.0 6.0 0.00 0.00 0.00 55 1016.8
20260905150346 89 206 3.0 6.0 0.00 0.00 0.00 58 1016.8
20260905144901 88 221 3.0 5.0 0.00 0.00 0.00 57 1016.6
20260905143902 87 166 1.0 4.0 0.00 0.00 0.00 60 1016.6
20260905142903 86 129 1.0 4.0 0.00 0.00 0.00 63 1016.7
20260905141902 85 142 1.0 2.0 0.00 0.00 0.00 64 1016.5
20260905140902 84 135 1.0 3.0 0.00 0.00 0.00 67 1016.6
20260905135901 82 126 1.0 3.0 0.00 0.00 0.00 71 1016.7
20260905134901 80 53 0.0 3.0 0.00 0.00 0.00 73 1016.7
20260905134340 79 64 0.0 2.0 0.00 0.00 0.00 75 1016.6
20260905132900 78 65 0.0 1.0 0.00 0.00 0.00 77 1016.6
20260905131902 77 98 0.0 1.0 0.00 0.00 0.00 79 1016.6
20260905130901 77 98 0.0 1.0 0.00 0.00 0.00 79 1016.7
20260905125903 76 98 0.0 1.0 0.00 0.00 0.00 80 1016.5
20260905125351 75 44 0.0 2.0 0.00 0.00 0.00 81 1016.5
20260905123902 75 84 0.0 0.0 0.00 0.00 0.00 83 1016.4
20260905122902 74 84 0.0 0.0 0.00 0.00 0.00 83 1016.3
20260905121901 74 84 0.0 0.0 0.00 0.00 0.00 84 1016.3
20260905120902 74 90 0.0 0.0 0.00 0.00 0.00 84 1016.2